1514228400.58,62590,8.75,73676.8,-5.43,-6.27,-6.27,0,*5A
1514228401.82,62591,8.75,73690.8,-5.43,-6.27,-6.27,0,*5B
1514228403.06,62592,8.75,73688.3,-5.43,-6.27,-6.27,0,*58
1514228404.26,62593,8.75,73684.3,-5.43,-6.31,-6.31,0,*59
1514228405.54,62594,8.75,73680.8,-5.41,-6.27,-6.27,0,*5C
1514228406.76,62595,8.75,73684.8,-5.43,-6.35,-6.27,0,*5C
1514228407.99,62596,8.75,73678.0,-5.45,-6.31,-6.31,0,*5A
1514228409.23,62597,8.75,73686.8,-5.43,-6.27,-6.27,0,*5D
1514228410.46,62598,8.75,73668.5,-5.43,-6.35,-6.27,0,*51
1514228411.69,62599,8.75,73656.5,-5.43,-6.35,-6.27,0,*50
1514228412.91,62600,8.75,73642.3,-5.43,-6.35,-6.27,0,*53
1514228414.16,62601,8.75,73666.0,-5.43,-6.27,-6.27,0,*51
1514228415.4,62602,8.75,73678.8,-5.43,-6.27,-6.27,0,*52
1514228416.64,62603,8.75,73668.0,-5.43,-6.27,-6.27,0,*53
1514228417.85,62604,8.75,73664.8,-5.43,-6.35,-6.35,0,*54
1514228419.09,62605,8.75,73686.3,-5.43,-6.27,-6.27,0,*55
1514228420.31,62606,8.75,73684.8,-5.43,-6.27,-6.35,0,*55
1514228421.58,62607,8.75,73682.8,-5.41,-6.27,-6.27,0,*55
1514228422.85,62608,8.75,73676.5,-5.41,-6.27,-6.27,0,*5A
1514228424.1,62609,8.75,73682.3,-5.41,-6.27,-6.35,0,*58
1514228425.34,62610,8.75,73686.0,-5.43,-6.27,-6.27,0,*51
1514228426.57,62611,8.75,73672.8,-5.41,-6.35,-6.35,0,*52
1514228427.84,62612,8.75,73674.5,-5.41,-6.27,-6.27,0,*51
1514228429.07,62613,8.75,73672.3,-5.43,-6.35,-6.27,0,*51
1514228430.31,62614,8.75,73680.3,-5.43,-6.27,-6.27,0,*55
1514228431.56,62615,8.75,73680.5,-5.43,-6.27,-6.27,0,*54
1514228432.8,62616,8.75,73676.5,-5.43,-6.27,-6.27,0,*57
1514228434.04,62617,8.75,73664.5,-5.43,-6.27,-6.27,0,*56
1514228435.31,62618,8.75,73666.5,-5.41,-6.27,-6.27,0,*5B
1514228436.55,62619,8.75,73670.0,-5.43,-6.27,-6.27,0,*58
1514228437.8,62620,8.75,73676.3,-5.43,-6.27,-6.27,0,*52
1514228439.07,62621,8.75,73674.3,-5.41,-6.27,-6.27,0,*51
1514228440.34,62622,8.75,73668.3,-5.41,-6.27,-6.27,0,*52
1514228441.61,62623,8.75,73666.8,-5.41,-6.27,-6.27,0,*53
1514228442.88,62624,8.75,73660.3,-5.41,-6.27,-6.27,0,*54
1514228444.12,62625,8.75,73672.5,-5.43,-6.27,-6.27,0,*57
1514228445.36,62626,8.75,73672.8,-5.43,-6.27,-6.27,0,*54
1514228446.58,62627,8.75,73684.5,-5.43,-6.27,-6.35,0,*56
1514228447.81,62628,8.75,73678.8,-5.41,-6.35,-6.35,0,*58
1514228449.04,62629,8.75,73682.8,-5.41,-6.35,-6.35,0,*59
1514228450.3,62630,8.75,73686.5,-5.41,-6.35,-6.27,0,*52
1514228451.57,62631,8.75,73678.0,-5.41,-6.27,-6.27,0,*50
1514228452.84,62632,8.75,73666.0,-5.41,-6.27,-6.27,0,*53
1514228454.11,62633,8.75,73656.3,-5.41,-6.27,-6.27,0,*52
1514228455.36,62634,8.75,73672.0,-5.41,-6.35,-6.27,0,*56
1514228456.63,62635,8.75,73670.3,-5.41,-6.27,-6.27,0,*54
1514228457.88,62636,8.75,73678.0,-5.41,-6.27,-6.35,0,*54
1514228459.15,62637,8.75,73678.0,-5.41,-6.27,-6.27,0,*56
1514228460.4,62638,8.75,73678.5,-5.41,-6.35,-6.27,0,*5A
1514228461.65,62639,8.75,73696.8,-5.41,-6.27,-6.35,0,*5B
1514228462.9,62640,8.75,73680.3,-5.41,-6.27,-6.35,0,*55
1514228464.17,62641,8.75,73660.3,-5.41,-6.27,-6.27,0,*57
1514228465.44,62642,8.75,73670.8,-5.41,-6.27,-6.27,0,*54
1514228466.71,62643,8.75,73678.8,-5.41,-6.27,-6.27,0,*55
1514228467.96,62644,8.75,73672.3,-5.41,-6.35,-6.27,0,*51
1514228469.23,62645,8.75,73680.0,-5.41,-6.27,-6.27,0,*53
1514228470.5,62646,8.75,73686.5,-5.41,-6.27,-6.27,0,*50
1514228471.77,62647,8.75,73680.0,-5.41,-6.27,-6.27,0,*51
1514228473.04,62648,8.75,73694.5,-5.41,-6.27,-6.27,0,*5E
1514228474.31,62649,8.75,73674.3,-5.41,-6.27,-6.27,0,*5F
1514228475.55,62650,8.75,73672.5,-5.39,-6.23,-6.23,0,*58
1514228476.82,62651,8.75,73676.5,-5.41,-6.27,-6.27,0,*56
1514228478.09,62652,8.75,73676.5,-5.41,-6.27,-6.27,0,*55
1514228479.36,62653,8.75,73666.3,-5.41,-6.27,-6.23,0,*50
1514228480.62,62654,8.75,73696.8,-5.41,-6.27,-6.23,0,*57
1514228481.89,62655,8.75,73690.0,-5.41,-6.27,-6.23,0,*56
1514228483.16,62656,8.75,73678.8,-5.41,-6.27,-6.23,0,*55
1514228484.43,62657,8.75,73686.3,-5.41,-6.27,-6.27,0,*50
1514228485.7,62658,8.75,73694.5,-5.41,-6.27,-6.27,0,*5F
1514228486.97,62659,8.75,73686.5,-5.41,-6.27,-6.27,0,*5E
1514228488.24,62660,8.75,73686.8,-5.41,-6.27,-6.27,0,*54
1514228489.48,62661,8.75,73684.8,-5.39,-6.23,-6.23,0,*5A
1514228490.72,62662,8.75,73696.3,-5.39,-6.23,-6.23,0,*59
1514228491.96,62663,8.75,73686.8,-5.39,-6.23,-6.19,0,*51
1514228493.23,62664,8.75,73702.0,-5.41,-6.27,-6.23,0,*54
1514228494.47,62665,8.75,73694.5,-5.39,-6.23,-6.23,0,*5E
1514228495.71,62666,8.75,73682.3,-5.39,-6.23,-6.23,0,*5D
1514228496.96,62667,8.75,73676.5,-5.41,-6.27,-6.35,0,*50
1514228498.19,62668,8.75,73672.8,-5.39,-6.23,-6.23,0,*53
1514228499.43,62669,8.75,73674.8,-5.39,-6.27,-6.23,0,*56
1514228500.7,62670,8.75,73670.5,-5.41,-6.27,-6.27,0,*55
1514228501.94,62671,8.75,73664.5,-5.39,-6.27,-6.27,0,*5B
1514228503.21,62672,8.75,73660.8,-5.41,-6.27,-6.27,0,*57
1514228504.45,62673,8.75,73664.5,-5.39,-6.23,-6.23,0,*59
1514228505.69,62674,8.75,73666.5,-5.39,-6.23,-6.23,0,*5E
1514228506.93,62675,8.75,73666.3,-5.39,-6.23,-6.23,0,*5F
1514228508.17,62676,8.75,73656.0,-5.39,-6.23,-6.23,0,*5C
1514228509.41,62677,8.75,73646.0,-5.39,-6.27,-6.23,0,*59
1514228510.65,62678,8.75,73654.8,-5.39,-6.23,-6.23,0,*52
1514228511.92,62679,8.75,73650.5,-5.41,-6.27,-6.27,0,*5C
1514228513.19,62680,8.75,73662.0,-5.41,-6.27,-6.27,0,*5A
1514228514.43,62681,8.75,73652.0,-5.39,-6.23,-6.23,0,*54
1514228515.66,62682,8.75,73652.5,-5.39,-6.23,-6.23,0,*57
1514228516.91,62683,8.75,73646.0,-5.41,-6.27,-6.35,0,*5A
1514228518.18,62684,8.75,73664.5,-5.41,-6.27,-6.27,0,*5E
1514228519.42,62685,8.75,73662.8,-5.39,-6.23,-6.23,0,*50
1514228520.69,62686,8.75,73662.3,-5.41,-6.27,-6.27,0,*5C
1514228521.93,62687,8.75,73650.8,-5.39,-6.23,-6.23,0,*52
1514228523.15,62688,8.75,73668.0,-5.39,-6.31,-6.23,0,*5E
1514228524.42,62689,8.75,73666.3,-5.41,-6.27,-6.27,0,*53
1514228525.69,62690,8.75,73672.3,-5.41,-6.27,-6.27,0,*5B
1514228526.91,62691,8.75,73676.5,-5.39,-6.31,-6.23,0,*56
1514228528.14,62692,8.75,73674.0,-5.39,-6.23,-6.23,0,*56
1514228529.38,62693,8.75,73660.5,-5.39,-6.23,-6.23,0,*57
1514228530.63,62694,8.75,73678.3,-5.39,-6.23,-6.19,0,*59
1514228531.88,62695,8.75,73684.0,-5.39,-6.23,-6.19,0,*58
1514228533.12,62696,8.75,73680.8,-5.39,-6.23,-6.19,0,*5B
1514228534.37,62697,8.75,73684.5,-5.39,-6.23,-6.19,0,*5A
1514228535.61,62698,8.75,73686.5,-5.39,-6.23,-6.19,0,*55
1514228536.86,62699,8.75,73682.8,-5.39,-6.23,-6.19,0,*54
1514228538.11,62700,8.75,73684.8,-5.39,-6.23,-6.19,0,*55
1514228539.33,62701,8.75,73678.8,-5.39,-6.31,-6.19,0,*57
1514228540.57,62702,8.75,73680.8,-5.39,-6.23,-6.19,0,*57
1514228541.82,62703,8.75,73670.0,-5.39,-6.23,-6.19,0,*56
1514228543.07,62704,8.75,73670.3,-5.39,-6.23,-6.19,0,*51
1514228544.31,62705,8.75,73672.3,-5.39,-6.23,-6.19,0,*50
1514228545.56,62706,8.75,73666.8,-5.39,-6.23,-6.19,0,*53
1514228546.78,62707,8.75,73658.3,-5.35,-6.19,-6.13,0,*5D
1514228547.97,62708,8.75,73660.8,-5.35,-6.13,-6.13,0,*58
1514228549.16,62709,8.75,73672.3,-5.35,-6.13,-6.13,0,*59
1514228550.41,62710,8.75,73650.8,-5.39,-6.19,-6.19,0,*5D
1514228551.66,62711,8.75,73664.5,-5.39,-6.23,-6.19,0,*55
1514228552.91,62712,8.75,73654.3,-5.39,-6.23,-6.19,0,*56
1514228554.13,62713,8.75,73670.0,-5.39,-6.31,-6.19,0,*54
1514228555.38,62714,8.75,73660.0,-5.39,-6.23,-6.19,0,*50
1514228556.59,62715,8.75,73682.3,-5.35,-6.23,-6.13,0,*57
1514228557.81,62716,8.75,73672.8,-5.35,-6.19,-6.13,0,*5D
1514228559.06,62717,8.75,73674.8,-5.35,-6.19,-6.19,0,*56
1514228560.28,62718,8.75,73672.0,-5.35,-6.13,-6.19,0,*53
1514228561.53,62719,8.75,73666.5,-5.35,-6.19,-6.19,0,*58
1514228562.78,62720,8.75,73666.3,-5.35,-6.19,-6.19,0,*52
1514228564.02,62721,8.75,73666.8,-5.39,-6.23,-6.23,0,*5F
1514228565.27,62722,8.75,73664.0,-5.35,-6.19,-6.27,0,*5D
1514228566.52,62723,8.75,73660.5,-5.35,-6.19,-6.19,0,*51
1514228567.79,62724,8.75,73666.0,-5.33,-6.19,-6.19,0,*50
1514228569.01,62725,8.75,73666.5,-5.35,-6.19,-6.13,0,*5D
1514228570.23,62726,8.75,73662.0,-5.35,-6.19,-6.13,0,*5E
1514228571.5,62727,8.75,73656.8,-5.33,-6.19,-6.19,0,*53
1514228572.75,62728,8.75,73662.5,-5.35,-6.19,-6.19,0,*5A
1514228574.0,62729,8.75,73646.5,-5.35,-6.19,-6.19,0,*5B
1514228575.27,62730,8.75,73646.5,-5.33,-6.19,-6.19,0,*55
1514228576.51,62731,8.75,73646.0,-5.35,-6.27,-6.19,0,*5F
1514228577.74,62732,8.75,73650.0,-5.35,-6.13,-6.19,0,*5B
1514228578.96,62733,8.75,73656.5,-5.35,-6.13,-6.19,0,*5A
1514228580.21,62734,8.75,73662.8,-5.35,-6.19,-6.19,0,*57
1514228581.48,62735,8.75,73654.8,-5.33,-6.19,-6.19,0,*50
1514228582.73,62736,8.75,73674.0,-5.35,-6.19,-6.19,0,*55
1514228583.98,62737,8.75,73674.3,-5.33,-6.13,-6.19,0,*58
1514228585.25,62738,8.75,73658.8,-5.33,-6.19,-6.19,0,*5D
1514228586.47,62739,8.75,73656.5,-5.35,-6.19,-6.13,0,*50
1514228587.75,62740,8.75,73666.8,-5.33,-6.19,-6.19,0,*52
1514228589.02,62741,8.75,73672.0,-5.33,-6.19,-6.19,0,*53
1514228590.29,62742,8.75,73666.3,-5.33,-6.19,-6.19,0,*50
1514228591.54,62743,8.75,73664.5,-5.35,-6.19,-6.19,0,*57
1514228592.76,62744,8.75,73668.8,-5.35,-6.19,-6.13,0,*5A
1514228593.98,62745,8.75,73674.0,-5.35,-6.19,-6.13,0,*5B
1514228595.2,62746,8.75,73658.5,-5.35,-6.19,-6.13,0,*58
1514228596.42,62747,8.75,73662.8,-5.35,-6.19,-6.13,0,*59
1514228597.64,62748,8.75,73658.3,-5.35,-6.19,-6.13,0,*56
1514228598.85,62749,8.75,73656.3,-5.35,-6.27,-6.13,0,*5A
1514228600.09,62750,8.75,73654.8,-5.33,-6.19,-6.13,0,*59
1514228601.34,62751,8.75,73662.3,-5.33,-6.19,-6.13,0,*58
1514228602.58,62752,8.75,73652.5,-5.33,-6.19,-6.13,0,*5B
1514228603.82,62753,8.75,73658.3,-5.33,-6.19,-6.13,0,*5A
1514228605.07,62754,8.75,73660.3,-5.33,-6.19,-6.13,0,*5D
1514228606.29,62755,8.75,73670.5,-5.35,-6.19,-6.13,0,*5A
1514228607.53,62756,8.75,73684.5,-5.33,-6.19,-6.13,0,*5F
1514228608.77,62757,8.75,73668.8,-5.33,-6.19,-6.13,0,*5E
1514228610.02,62758,8.75,73662.0,-5.33,-6.19,-6.13,0,*51
1514228611.23,62759,8.75,73660.8,-5.35,-6.19,-6.13,0,*56
1514228612.48,62760,8.75,73656.0,-5.35,-6.19,-6.19,0,*56
1514228613.76,62761,8.75,73648.0,-5.33,-6.19,-6.19,0,*51
1514228615.0,62762,8.75,73660.3,-5.33,-6.19,-6.13,0,*58
1514228616.22,62763,8.75,73654.5,-5.35,-6.19,-6.13,0,*5F
1514228617.46,62764,8.75,73652.3,-5.33,-6.19,-6.13,0,*5E
1514228618.68,62765,8.75,73648.8,-5.35,-6.19,-6.13,0,*59
1514228619.96,62766,8.75,73642.3,-5.33,-6.19,-6.19,0,*56
1514228621.23,62767,8.75,73642.8,-5.33,-6.19,-6.19,0,*57
1514228622.5,62768,8.75,73650.8,-5.33,-6.27,-6.19,0,*55
1514228623.77,62769,8.75,73648.3,-5.33,-6.19,-6.19,0,*59
1514228625.04,62770,8.75,73654.8,-5.33,-6.19,-6.19,0,*51
1514228626.32,62771,8.75,73654.5,-5.33,-6.19,-6.19,0,*50
1514228627.57,62772,8.75,73650.3,-5.35,-6.19,-6.19,0,*55
1514228628.82,62773,8.75,73650.8,-5.35,-6.19,-6.19,0,*54
1514228630.09,62774,8.75,73648.5,-5.33,-6.19,-6.19,0,*55
1514228631.34,62775,8.75,73658.5,-5.35,-6.19,-6.19,0,*52
1514228632.61,62776,8.75,73650.8,-5.33,-6.27,-6.19,0,*5A
1514228633.88,62777,8.75,73652.5,-5.33,-6.19,-6.27,0,*5B
1514228635.15,62778,8.75,73658.0,-5.33,-6.19,-6.19,0,*59
1514228636.42,62779,8.75,73660.5,-5.33,-6.19,-6.19,0,*58
1514228637.7,62780,8.75,73666.0,-5.33,-6.19,-6.19,0,*5E
1514228638.97,62781,8.75,73664.5,-5.33,-6.19,-6.27,0,*52
1514228640.24,62782,8.75,73662.3,-5.33,-6.19,-6.19,0,*5C
1514228641.51,62783,8.75,73664.5,-5.33,-6.19,-6.19,0,*5D
1514228642.79,62784,8.75,73670.3,-5.33,-6.19,-6.19,0,*5A
1514228644.01,62785,8.75,73672.0,-5.31,-6.13,-6.13,0,*59
1514228645.21,62786,8.75,73678.8,-5.29,-6.13,-6.13,0,*53
1514228646.49,62787,8.75,73678.8,-5.33,-6.19,-6.19,0,*59
1514228647.76,62788,8.75,73686.5,-5.33,-6.19,-6.27,0,*5B
1514228649.03,62789,8.75,73680.0,-5.33,-6.19,-6.19,0,*57
1514228650.29,62790,8.75,73682.8,-5.33,-6.27,-6.27,0,*5F
1514228651.57,62791,8.75,73686.5,-5.33,-6.19,-6.19,0,*5E
1514228652.84,62792,8.75,73682.5,-5.33,-6.19,-6.19,0,*5D
1514228654.11,62793,8.75,73686.8,-5.33,-6.19,-6.19,0,*5C
1514228655.38,62794,8.75,73670.8,-5.33,-6.27,-6.19,0,*56
1514228656.66,62795,8.75,73662.8,-5.33,-6.19,-6.19,0,*5A
1514228657.93,62796,8.75,73648.5,-5.33,-6.19,-6.19,0,*59
1514228659.2,62797,8.75,73642.5,-5.33,-6.19,-6.19,0,*58
1514228660.48,62798,8.75,73652.3,-5.33,-6.19,-6.19,0,*57
1514228661.75,62799,8.75,73664.3,-5.33,-6.19,-6.19,0,*56
1514228663.02,62800,8.75,73676.0,-5.33,-6.27,-6.19,0,*54
1514228664.29,62801,8.75,73670.3,-5.33,-6.19,-6.27,0,*55
1514228665.53,62802,8.75,73666.3,-5.35,-6.19,-6.27,0,*50
1514228666.81,62803,8.75,73658.5,-5.33,-6.19,-6.19,0,*5A
1514228668.06,62804,8.75,73662.0,-5.35,-6.19,-6.19,0,*5B
1514228669.33,62805,8.75,73668.8,-5.33,-6.19,-6.19,0,*5C
1514228670.6,62806,8.75,73664.5,-5.33,-6.19,-6.27,0,*52
1514228671.87,62807,8.75,73668.8,-5.33,-6.19,-6.19,0,*5E
1514228673.14,62808,8.75,73660.8,-5.33,-6.27,-6.19,0,*5C
1514228674.34,62809,8.75,73668.0,-5.29,-6.13,-6.13,0,*5B
1514228675.59,62810,8.75,73674.8,-5.31,-6.23,-6.13,0,*59
1514228676.81,62811,8.75,73682.5,-5.31,-6.13,-6.13,0,*5B
1514228678.04,62812,8.75,73678.5,-5.31,-6.13,-6.13,0,*58
1514228679.29,62813,8.75,73674.5,-5.31,-6.13,-6.23,0,*5A
1514228680.51,62814,8.75,73676.5,-5.31,-6.13,-6.13,0,*5E
1514228681.78,62815,8.75,73678.8,-5.33,-6.19,-6.19,0,*5D
1514228683.06,62816,8.75,73680.5,-5.33,-6.19,-6.19,0,*5E
1514228684.33,62817,8.75,73670.8,-5.33,-6.19,-6.19,0,*5F
1514228685.61,62818,8.75,73658.5,-5.33,-6.19,-6.19,0,*50
1514228686.88,62819,8.75,73658.3,-5.33,-6.19,-6.27,0,*5C
1514228688.12,62820,8.75,73658.5,-5.31,-6.23,-6.13,0,*5A
1514228689.37,62821,8.75,73656.5,-5.29,-6.23,-6.23,0,*51
1514228690.62,62822,8.75,73646.3,-5.31,-6.23,-6.13,0,*58
1514228691.84,62823,8.75,73648.0,-5.29,-6.13,-6.23,0,*50
1514228693.07,62824,8.75,73642.0,-5.31,-6.13,-6.13,0,*5D
1514228694.31,62825,8.75,73652.8,-5.31,-6.23,-6.13,0,*5F
1514228695.54,62826,8.75,73648.3,-5.31,-6.13,-6.13,0,*5F
1514228696.79,62827,8.75,73638.3,-5.31,-6.13,-6.23,0,*5D
1514228698.03,62828,8.75,73658.3,-5.31,-6.23,-6.13,0,*52
1514228699.26,62829,8.75,73658.3,-5.31,-6.13,-6.13,0,*50
1514228700.48,62830,8.75,73656.0,-5.31,-6.13,-6.13,0,*58
1514228701.73,62831,8.75,73650.3,-5.31,-6.13,-6.23,0,*5A
1514228702.96,62832,8.75,73664.5,-5.31,-6.13,-6.13,0,*5A
1514228704.2,62833,8.75,73664.0,-5.31,-6.13,-6.23,0,*58
1514228705.43,62834,8.75,73646.8,-5.31,-6.13,-6.13,0,*5C
1514228706.68,62835,8.75,73654.0,-5.31,-6.13,-6.23,0,*5E
1514228707.92,62836,8.75,73664.8,-5.31,-6.23,-6.13,0,*5D
1514228709.15,62837,8.75,73654.0,-5.31,-6.13,-6.13,0,*5F
1514228710.37,62838,8.75,73644.8,-5.29,-6.13,-6.23,0,*5A
1514228711.6,62839,8.75,73658.8,-5.31,-6.13,-6.13,0,*51
1514228712.82,62840,8.75,73650.8,-5.31,-6.13,-6.13,0,*5F
1514228714.05,62841,8.75,73658.3,-5.31,-6.13,-6.13,0,*5E
1514228715.3,62842,8.75,73654.5,-5.31,-6.13,-6.23,0,*5E
1514228716.52,62843,8.75,73658.5,-5.31,-6.13,-6.13,0,*5C
1514228717.74,62844,8.75,73648.8,-5.31,-6.13,-6.13,0,*5B
1514228718.99,62845,8.75,73664.8,-5.31,-6.13,-6.23,0,*59
1514228720.24,62846,8.75,73658.3,-5.31,-6.23,-6.13,0,*5A
1514228721.49,62847,8.75,73660.0,-5.31,-6.23,-6.13,0,*5B
1514228722.71,62848,8.75,73664.5,-5.31,-6.13,-6.13,0,*57
1514228723.91,62849,8.75,73658.5,-5.29,-6.13,-6.13,0,*5F
1514228725.14,62850,8.75,73662.0,-5.31,-6.13,-6.13,0,*5E
1514228726.34,62851,8.75,73660.5,-5.29,-6.13,-6.13,0,*56
1514228727.59,62852,8.75,73656.5,-5.31,-6.23,-6.13,0,*5F
1514228728.81,62853,8.75,73664.8,-5.29,-6.13,-6.23,0,*57
1514228730.06,62854,8.75,73660.3,-5.31,-6.23,-6.13,0,*59
1514228731.26,62855,8.75,73674.5,-5.29,-6.13,-6.13,0,*52
1514228732.48,62856,8.75,73672.0,-5.31,-6.13,-6.13,0,*58
1514228733.69,62857,8.75,73664.5,-5.29,-6.13,-6.13,0,*50
1514228734.91,62858,8.75,73662.5,-5.31,-6.13,-6.13,0,*56
1514228736.11,62859,8.75,73666.3,-5.29,-6.13,-6.13,0,*5E
1514228737.34,62860,8.75,73656.5,-5.31,-6.13,-6.13,0,*5D
1514228738.56,62861,8.75,73650.5,-5.31,-6.13,-6.13,0,*5C
1514228739.78,62862,8.75,73662.0,-5.31,-6.13,-6.13,0,*5F
1514228741.03,62863,8.75,73656.0,-5.31,-6.23,-6.13,0,*5D
1514228742.26,62864,8.75,73662.3,-5.31,-6.13,-6.13,0,*59
1514228743.48,62865,8.75,73668.5,-5.31,-6.13,-6.13,0,*58
1514228744.71,62866,8.75,73664.3,-5.31,-6.13,-6.13,0,*5B
1514228745.91,62867,8.75,73670.0,-5.29,-6.13,-6.13,0,*53
1514228747.13,62868,8.75,73660.8,-5.31,-6.13,-6.13,0,*55
1514228748.36,62869,8.75,73654.0,-5.31,-6.13,-6.13,0,*54
1514228749.58,62870,8.75,73650.0,-5.31,-6.13,-6.13,0,*5C
1514228750.81,62871,8.75,73642.0,-5.29,-6.23,-6.13,0,*57
1514228752.03,62872,8.75,73652.8,-5.31,-6.13,-6.13,0,*5E
1514228753.25,62873,8.75,73654.0,-5.29,-6.13,-6.23,0,*55
1514228754.46,62874,8.75,73656.8,-5.29,-6.13,-6.13,0,*51
1514228755.66,62875,8.75,73658.5,-5.29,-6.13,-6.13,0,*50
1514228756.86,62876,8.75,73666.3,-5.29,-6.13,-6.13,0,*53
1514228758.06,62877,8.75,73664.3,-5.29,-6.13,-6.13,0,*52
1514228759.26,62878,8.75,73670.0,-5.29,-6.13,-6.13,0,*5D
1514228760.51,62879,8.75,73656.0,-5.31,-6.13,-6.23,0,*56
1514228761.76,62880,8.75,73654.0,-5.31,-6.13,-6.23,0,*50
1514228762.96,62881,8.75,73652.5,-5.29,-6.13,-6.13,0,*5B
1514228764.18,62882,8.75,73662.5,-5.31,-6.13,-6.13,0,*51
1514228765.41,62883,8.75,73636.0,-5.31,-6.13,-6.13,0,*50
1514228766.61,62884,8.75,73658.0,-5.29,-6.13,-6.13,0,*5E
1514228767.81,62885,8.75,73672.3,-5.29,-6.13,-6.13,0,*5F
1514228769.01,62886,8.75,73656.8,-5.29,-6.13,-6.13,0,*5C
1514228770.24,62887,8.75,73662.8,-5.31,-6.13,-6.13,0,*54
1514228771.44,62888,8.75,73676.3,-5.29,-6.13,-6.13,0,*52
1514228772.66,62889,8.75,73670.8,-5.31,-6.13,-6.13,0,*5A
1514228773.87,62890,8.75,73656.8,-5.29,-6.13,-6.13,0,*5B
1514228775.07,62891,8.75,73678.8,-5.29,-6.13,-6.13,0,*5A
1514228776.27,62892,8.75,73672.5,-5.29,-6.13,-6.13,0,*59
1514228777.49,62893,8.75,73668.0,-5.31,-6.13,-6.13,0,*51
1514228778.69,62894,8.75,73652.8,-5.29,-6.13,-6.13,0,*5F
1514228779.92,62895,8.75,73656.8,-5.29,-6.13,-6.23,0,*5D
1514228781.14,62896,8.75,73668.3,-5.31,-6.13,-6.13,0,*54
1514228782.37,62897,8.75,73650.0,-5.31,-6.13,-6.13,0,*55
1514228783.59,62898,8.75,73652.0,-5.29,-6.23,-6.13,0,*50
1514228784.79,62899,8.75,73664.3,-5.29,-6.13,-6.13,0,*52
1514228785.99,62900,8.75,73668.3,-5.29,-6.13,-6.13,0,*53
1514228787.2,62901,8.75,73654.3,-5.29,-6.13,-6.13,0,*52
1514228788.4,62902,8.75,73648.5,-5.29,-6.13,-6.13,0,*51
1514228789.6,62903,8.75,73646.0,-5.29,-6.13,-6.13,0,*50
1514228790.82,62904,8.75,73650.0,-5.27,-6.09,-6.09,0,*59
1514228792.02,62905,8.75,73648.5,-5.29,-6.13,-6.13,0,*56
1514228793.22,62906,8.75,73644.0,-5.29,-6.13,-6.13,0,*55
1514228794.43,62907,8.75,73678.5,-5.29,-6.13,-6.09,0,*5F
1514228795.63,62908,8.75,73676.0,-5.29,-6.13,-6.09,0,*50
1514228796.83,62909,8.75,73672.3,-5.29,-6.13,-6.09,0,*51
1514228798.05,62910,8.75,73654.0,-5.31,-6.13,-6.09,0,*50
1514228799.25,62911,8.75,73658.8,-5.29,-6.13,-6.09,0,*58
1514228800.45,62912,8.75,73654.8,-5.29,-6.13,-6.09,0,*5B
1514228801.66,62913,8.75,73646.3,-5.29,-6.13,-6.09,0,*5A
1514228802.86,62914,8.75,73666.3,-5.29,-6.13,-6.09,0,*5D
1514228804.06,62915,8.75,73664.0,-5.29,-6.13,-6.09,0,*5C
1514228805.26,62916,8.75,73660.5,-5.29,-6.13,-6.09,0,*5F
1514228806.46,62917,8.75,73664.5,-5.29,-6.13,-6.09,0,*5E
1514228807.66,62918,8.75,73650.8,-5.29,-6.13,-6.09,0,*51
1514228808.88,62919,8.75,73658.3,-5.27,-6.09,-6.05,0,*59
1514228810.11,62920,8.75,73670.8,-5.27,-6.09,-6.05,0,*53
1514228811.33,62921,8.75,73662.8,-5.27,-6.09,-6.05,0,*52
1514228812.53,62922,8.75,73656.3,-5.25,-6.09,-6.05,0,*53
1514228813.73,62923,8.75,73672.0,-5.29,-6.13,-6.09,0,*59
1514228814.93,62924,8.75,73670.3,-5.29,-6.13,-6.09,0,*5E
1514228816.13,62925,8.75,73666.8,-5.29,-6.13,-6.09,0,*5F
1514228817.33,62926,8.75,73670.3,-5.29,-6.09,-6.09,0,*57
1514228818.55,62927,8.75,73658.5,-5.27,-6.05,-6.05,0,*58
1514228819.77,62928,8.75,73658.8,-5.27,-6.05,-6.05,0,*57
1514228820.98,62929,8.75,73674.3,-5.27,-6.05,-6.01,0,*52
1514228822.2,62930,8.75,73658.3,-5.27,-6.05,-6.05,0,*5E
1514228823.42,62931,8.75,73660.3,-5.27,-6.05,-6.05,0,*5F
1514228824.63,62932,8.75,73660.5,-5.27,-6.05,-6.05,0,*5C
1514228825.83,62933,8.75,73662.8,-5.25,-6.01,-6.05,0,*5B
1514228827.05,62934,8.75,73660.5,-5.27,-6.05,-6.05,0,*5A
1514228828.24,62935,8.75,73668.0,-5.25,-6.05,-6.05,0,*59
1514228829.43,62936,8.75,73658.8,-5.25,-6.05,-6.05,0,*5A
1514228830.65,62937,8.75,73664.3,-5.27,-6.05,-6.05,0,*59
1514228831.87,62938,8.75,73678.0,-5.27,-6.05,-6.05,0,*56
1514228833.09,62939,8.75,73680.0,-5.27,-6.05,-6.09,0,*5B
1514228834.3,62940,8.75,73672.3,-5.27,-6.05,-6.05,0,*59
1514228835.52,62941,8.75,73674.0,-5.27,-6.05,-6.05,0,*58
1514228836.71,62942,8.75,73674.5,-5.25,-6.05,-6.05,0,*59
1514228837.93,62943,8.75,73680.8,-5.27,-6.05,-6.01,0,*5E
1514228839.15,62944,8.75,73670.3,-5.27,-6.05,-6.05,0,*5D
1514228840.37,62945,8.75,73682.5,-5.27,-6.09,-6.05,0,*50
1514228841.56,62946,8.75,73676.0,-5.25,-6.05,-6.05,0,*5D
1514228842.76,62947,8.75,73688.3,-5.25,-6.05,-6.01,0,*58
1514228843.97,62948,8.75,73684.8,-5.27,-6.05,-6.05,0,*51
1514228845.17,62949,8.75,73690.3,-5.25,-6.05,-6.05,0,*52
1514228846.39,62950,8.75,73684.0,-5.27,-6.01,-6.05,0,*5C
1514228847.61,62951,8.75,73682.8,-5.27,-6.05,-6.01,0,*5D
1514228848.82,62952,8.75,73694.3,-5.27,-6.05,-6.05,0,*5A
1514228850.02,62953,8.75,73698.5,-5.25,-6.05,-6.01,0,*5D
1514228851.21,62954,8.75,73678.5,-5.25,-6.05,-6.05,0,*5E
1514228852.43,62955,8.75,73688.8,-5.27,-6.05,-6.05,0,*5D
1514228853.62,62956,8.75,73692.3,-5.25,-6.01,-6.05,0,*58
1514228854.82,62957,8.75,73694.3,-5.25,-6.05,-6.05,0,*5D
1514228856.01,62958,8.75,73698.5,-5.25,-6.05,-6.05,0,*52
1514228857.23,62959,8.75,73692.8,-5.27,-6.05,-6.05,0,*51
1514228858.42,62960,8.75,73696.5,-5.25,-6.01,-6.05,0,*5D
1514228859.62,62961,8.75,73692.3,-5.25,-6.05,-6.05,0,*58
1514228860.81,62962,8.75,73680.5,-5.25,-6.05,-6.01,0,*5F
1514228862.0,62963,8.75,73658.8,-5.25,-6.05,-6.05,0,*5A
1514228863.2,62964,8.75,73674.3,-5.25,-6.05,-6.05,0,*5D
1514228864.39,62965,8.75,73676.3,-5.25,-6.05,-6.05,0,*5C
1514228865.58,62966,8.75,73674.8,-5.25,-6.05,-6.05,0,*5F
1514228866.78,62967,8.75,73680.0,-5.25,-6.05,-6.05,0,*5E
1514228867.97,62968,8.75,73686.5,-5.25,-6.05,-6.05,0,*51
1514228869.16,62969,8.75,73674.3,-5.25,-6.05,-6.05,0,*50
1514228870.36,62970,8.75,73664.8,-5.25,-6.05,-6.05,0,*58
1514228871.55,62971,8.75,73658.3,-5.25,-6.05,-6.05,0,*59
1514228872.74,62972,8.75,73646.3,-5.25,-6.05,-6.05,0,*5A
1514228873.94,62973,8.75,73654.5,-5.25,-6.05,-6.05,0,*5B
1514228875.13,62974,8.75,73650.8,-5.25,-6.05,-6.05,0,*5C
1514228876.32,62975,8.75,73666.8,-5.25,-6.05,-6.05,0,*5D
1514228877.52,62976,8.75,73668.5,-5.25,-6.05,-6.05,0,*5E
1514228878.72,62977,8.75,73662.3,-5.21,-6.01,-6.01,0,*5B
1514228879.91,62978,8.75,73670.0,-5.21,-6.01,-6.01,0,*54
1514228881.11,62979,8.75,73676.3,-5.21,-6.01,-6.01,0,*55
1514228882.31,62980,8.75,73672.5,-5.21,-6.01,-6.01,0,*53
1514228883.5,62981,8.75,73668.5,-5.25,-6.05,-6.05,0,*56
1514228884.7,62982,8.75,73678.0,-5.21,-6.01,-6.01,0,*51
1514228885.9,62983,8.75,73672.8,-5.21,-5.97,-6.01,0,*5C
1514228887.1,62984,8.75,73660.5,-5.21,-6.01,-6.01,0,*57
1514228888.29,62985,8.75,73664.8,-5.21,-6.01,-6.01,0,*56
1514228889.49,62986,8.75,73674.5,-5.21,-6.01,-6.01,0,*55
1514228890.69,62987,8.75,73670.3,-5.21,-6.01,-6.01,0,*54
1514228891.89,62988,8.75,73664.5,-5.21,-6.01,-6.01,0,*5B
1514228893.08,62989,8.75,73666.5,-5.21,-6.01,-6.01,0,*5A
1514228894.28,62990,8.75,73662.3,-5.21,-6.01,-6.01,0,*52
1514228895.48,62991,8.75,73658.3,-5.21,-6.01,-6.01,0,*53
1514228896.68,62992,8.75,73658.3,-5.21,-6.01,-6.01,0,*50
1514228897.87,62993,8.75,73660.8,-5.21,-6.01,-6.01,0,*51
1514228899.07,62994,8.75,73656.8,-5.21,-6.01,-6.01,0,*56
1514228900.27,62995,8.75,73650.5,-5.21,-6.01,-6.01,0,*57
1514228901.49,62996,8.75,73658.8,-5.19,-6.01,-6.01,0,*5F
1514228902.69,62997,8.75,73652.0,-5.21,-6.01,-6.01,0,*55
1514228903.91,62998,8.75,73648.5,-5.19,-6.01,-6.01,0,*51
1514228905.11,62999,8.75,73656.5,-5.21,-6.01,-6.01,0,*5B
1514228906.33,63000,8.75,73648.8,-5.19,-6.01,-6.01,0,*58
1514228907.52,63001,8.75,73662.0,-5.21,-6.01,-6.01,0,*52
1514228908.75,63002,8.75,73670.3,-5.19,-6.01,-6.01,0,*5A
1514228909.94,63003,8.75,73656.8,-5.21,-6.01,-6.01,0,*50
1514228911.16,63004,8.75,73668.0,-5.19,-6.01,-6.01,0,*5C
1514228912.38,63005,8.75,73662.0,-5.19,-6.01,-6.01,0,*5D
1514228913.61,63006,8.75,73668.3,-5.19,-6.01,-6.01,0,*5E
1514228914.83,63007,8.75,73668.3,-5.19,-6.01,-6.01,0,*5F
1514228916.05,63008,8.75,73664.8,-5.19,-6.01,-6.01,0,*50
1514228917.24,63009,8.75,73672.0,-5.21,-6.01,-5.97,0,*56
1514228918.46,63010,8.75,73660.8,-5.19,-6.01,-6.01,0,*59